Temperature
26 27 28 29 30 30 30 30 30 30 30 30 30 31 31 30 29 29 27 26 25 24 23 22 21 21 20 21 21 21 20 20 20 19 19 19 18 18 18 18 18 18 18 18
26 27 29 29 29 29 29 29 30 30 29 30 30 31 31 30 29 29 28 27 26 25 24 22 21 21 21 21 21 21 20 20 20 20 19 19 18 18 18 18 18 18 18 18
27 28 28 27 27 28 29 29 29 29 29 30 30 30 30 30 29 28 28 27 27 26 24 23 21 21 21 21 21 21 21 20 20 20 19 19 18 18 18 18 18 18 18 18
27 27 27 27 27 28 28 29 29 29 29 30 30 30 31 31 30 29 28 28 27 26 25 23 22 21 21 21 21 21 21 21 20 20 19 19 18 18 18 18 18 18 18 18
27 27 26 27 28 28 29 28 28 29 29 29 29 30 31 31 30 30 29 28 27 26 25 24 23 22 21 21 21 21 21 21 20 20 20 19 19 18 18 18 18 18 18 18
27 27 27 28 28 28 28 28 28 28 29 28 29 29 30 31 31 31 30 28 27 26 25 24 23 22 21 21 20 20 21 21 20 20 20 19 19 19 18 18 18 18 18 18
25 26 27 28 27 27 27 27 27 27 27 28 29 29 30 31 31 30 30 29 27 26 25 24 23 22 21 21 21 20 21 21 20 20 20 19 19 19 19 19 18 18 18 18
25 25 26 27 28 27 27 28 28 27 28 29 28 28 31 30 29 28 28 27 27 26 25 24 23 23 22 21 21 21 21 21 20 20 20 20 19 19 19 19 18 18 18 18
26 26 27 27 28 28 27 28 30 29 29 29 29 29 30 30 29 29 28 27 27 26 25 24 23 23 22 21 21 21 21 21 20 20 20 20 19 19 19 18 18 18 18 18
27 26 26 27 27 28 29 29 28 28 27 27 28 28 30 29 29 29 29 28 27 26 25 24 23 22 22 21 21 20 20 20 20 20 20 19 19 19 19 19 18 18 18 18
27 26 26 26 26 27 27 27 28 28 28 28 28 29 31 30 29 29 29 27 26 25 25 24 23 22 21 21 20 20 20 20 20 20 20 19 19 19 19 18 18 18 18 18
27 27 26 26 27 28 28 28 28 27 27 28 29 29 29 29 29 28 28 26 25 25 24 24 23 22 21 20 20 20 19 19 19 19 19 19 19 19 18 18 18 18 18 18
26 26 25 25 26 26 27 28 28 28 28 28 28 29 28 28 28 27 27 25 24 23 23 23 22 21 21 20 20 19 19 19 19 19 19 19 18 18 18 18 18 18 17 17
26 25 26 26 27 27 26 27 28 28 27 28 28 29 28 28 28 27 26 24 23 23 22 22 21 20 20 20 19 19 19 19 19 19 19 18 18 18 18 18 18 17 17 17
25 25 26 27 27 27 27 27 27 27 28 28 29 29 29 29 28 27 25 24 23 22 22 21 20 20 19 19 19 19 19 19 19 19 18 18 18 18 18 18 17 17 17 17
25 25 25 25 26 27 27 27 28 28 28 28 29 29 29 27 26 25 24 24 23 22 21 21 20 19 19 19 19 18 18 18 18 18 18 18 18 17 17 17 17 17 17 16
24 24 24 25 26 26 26 27 27 28 28 28 28 28 28 27 26 25 24 23 23 22 21 20 19 19 18 18 18 18 18 18 18 18 17 17 17 17 17 17 17 17 16 16
23 23 24 25 25 24 26 27 28 27 28 28 28 28 27 26 24 23 23 22 22 21 20 19 19 18 18 18 18 18 18 17 17 17 17 17 16 16 16 16 16 16 16 15
23 23 24 25 24 25 25 26 26 26 26 27 27 27 26 24 23 23 22 21 21 20 19 19 18 18 18 18 18 18 17 17 17 17 17 16 16 16 16 16 16 15 15 15
22 23 24 24 24 24 26 26 25 26 26 26 25 25 24 24 26 24 21 20 19 19 18 18 18 18 18 18 17 17 17 17 16 16 16 16 16 16 16 15 15 15 15 15
22 22 23 24 24 25 25 24 24 25 25 24 24 24 24 24 25 21 19 19 18 18 17 17 17 17 17 17 17 17 16 16 16 16 16 16 16 15 15 15 15 14 14 14
22 23 23 23 23 24 23 24 24 23 21 22 22 22 22 21 20 19 18 17 17 17 17 17 17 17 17 17 16 16 16 16 15 15 15 15 15 15 15 15 14 14 14 13
22 23 24 23 23 21 21 21 20 19 20 20 20 20 20 19 19 18 17 17 16 16 16 16 16 16 16 16 16 16 15 15 15 15 15 15 14 14 14 14 13 13 13 13
20 20 21 21 21 20 19 19 19 19 19 19 19 19 19 19 18 17 16 16 16 16 16 15 15 16 15 15 15 15 15 15 15 14 14 14 14 13 13 13 13 13 12 12
20 20 20 20 19 19 19 18 18 18 18 18 18 18 18 18 17 16 16 15 15 15 15 15 15 15 14 14 14 14 14 14 14 14 13 13 13 13 13 12 12 12 12 11
19 20 21 20 19 20 18 17 17 17 17 17 17 17 17 17 16 16 15 15 15 15 15 15 14 14 14 14 14 14 13 13 13 13 13 13 13 12 12 12 11 11 11 11
Wind_Speed
11 12 15 16 16 9 8 11 11 7 4 8 10 9 7 7 10 12 13 14 16 16 16 16 16 15 15 14 14 14 14 13 11 10 10 9 8 8 7 8 9 9 8 8
11 16 14 10 10 10 10 12 10 7 5 7 9 10 8 7 10 11 12 14 15 15 16 17 17 16 16 16 16 15 15 14 13 11 9 8 7 7 8 7 8 10 10 9
17 9 12 13 13 14 13 13 10 7 5 7 8 11 10 8 9 10 11 12 13 15 17 18 18 18 17 17 17 15 16 15 15 12 9 7 7 7 8 8 8 10 11 11
15 8 13 16 16 15 13 9 9 8 9 8 9 10 11 10 10 11 11 12 13 14 16 17 18 18 18 17 16 16 15 15 14 13 12 12 10 10 10 8 8 9 11 12
13 13 15 17 16 15 9 8 9 9 10 10 10 11 9 9 10 11 12 12 12 13 15 17 18 18 17 16 16 15 15 15 14 14 14 13 12 10 8 8 8 9 9 11
9 11 14 13 13 13 8 9 7 8 10 13 13 12 10 9 10 9 10 11 11 12 14 15 15 15 15 15 15 15 15 15 15 15 15 15 13 11 10 10 9 8 8 9
12 12 11 11 14 15 14 12 9 10 11 12 9 10 9 4 6 7 7 7 9 11 12 14 15 15 15 16 15 14 15 15 15 15 15 15 14 13 12 11 9 9 8 8
15 15 16 14 15 14 19 18 11 9 12 9 8 10 7 4 3 4 5 6 7 9 11 13 14 15 15 16 15 15 15 14 14 14 14 13 13 11 10 10 9 9 8 8
14 12 15 15 14 14 17 18 14 9 7 8 9 7 7 6 5 5 5 6 8 8 10 12 13 13 14 14 15 15 14 13 13 13 12 12 12 12 10 9 10 9 8 8
8 10 13 13 12 13 13 15 10 11 9 11 10 10 8 9 7 5 5 6 7 7 8 9 10 12 12 12 13 13 13 13 12 12 11 10 12 12 10 9 10 9 9 8
10 10 13 15 15 18 14 16 13 12 11 10 9 7 4 4 4 4 4 5 6 7 8 9 9 10 11 11 12 12 12 11 11 11 10 10 10 10 10 9 9 9 8 8
12 9 12 15 10 10 16 16 16 13 10 10 9 4 5 3 3 3 4 4 5 6 7 8 9 9 10 10 10 10 10 10 10 9 9 9 8 8 8 8 7 7 7 7
12 9 12 12 11 12 15 16 16 15 10 11 12 5 6 4 3 4 4 5 5 6 6 7 7 8 9 9 9 9 8 9 9 8 8 7 7 7 7 6 6 6 5 5
10 10 12 13 11 16 17 16 17 16 13 13 13 8 5 5 4 4 4 5 6 7 7 7 7 7 7 8 8 8 8 7 7 7 7 6 6 5 5 5 5 5 5 4
9 12 12 9 6 11 15 17 18 18 16 13 11 10 6 5 4 4 6 7 8 8 7 7 7 7 7 7 7 7 7 7 7 7 6 5 5 4 4 4 4 4 4 4
9 9 11 11 9 10 12 16 17 18 16 14 11 9 4 2 3 5 6 8 8 8 8 8 8 8 7 7 8 8 7 7 7 7 6 5 5 5 4 3 4 4 4 4
11 10 12 12 12 11 15 15 16 16 15 14 13 9 6 5 5 6 7 8 8 8 8 9 9 8 8 8 8 8 8 7 7 7 6 6 5 5 5 4 4 4 4 4
10 11 9 10 12 15 8 7 11 13 12 11 9 7 6 4 4 5 6 7 8 9 9 9 10 10 9 9 9 9 9 8 8 7 7 6 5 6 6 5 5 5 5 5
10 11 9 10 13 11 7 7 10 12 11 9 8 7 5 6 6 5 5 6 8 9 10 10 10 11 10 10 10 10 9 8 8 8 7 6 6 7 6 6 6 5 6 6
9 10 10 10 13 11 7 7 6 8 10 6 7 7 8 9 7 5 7 8 9 10 10 10 10 11 11 10 10 10 9 9 8 7 7 7 7 7 7 6 6 6 6 7
13 11 14 12 11 7 3 5 7 10 5 4 5 7 8 6 1 7 10 10 10 11 11 11 11 10 10 10 10 10 10 9 8 8 8 8 8 7 7 7 7 8 8 8
11 11 12 12 12 7 4 6 6 1 3 2 3 5 5 6 8 10 11 12 12 12 12 12 11 10 9 9 10 10 9 8 8 9 9 8 8 7 7 8 8 8 9 9
6 4 5 5 3 3 2 1 2 2 1 2 2 4 6 8 10 11 11 12 12 12 11 11 11 11 9 8 9 10 9 8 9 10 9 9 9 8 8 8 8 7 6 6
4 2 3 3 2 1 1 1 1 1 1 1 2 4 7 9 10 11 11 11 11 12 11 11 11 10 9 8 9 10 9 9 10 10 9 9 9 9 9 7 6 6 5 6
3 4 4 4 3 2 1 2 3 4 4 4 4 5 7 9 11 11 11 11 11 11 10 10 10 10 9 9 9 9 9 9 10 10 9 9 9 10 10 10 9 8 8 6
4 4 5 4 3 2 2 3 3 4 4 5 5 6 7 9 11 12 11 10 10 11 10 10 11 11 10 9 9 8 8 8 9 9 8 8 8 9 9 11 11 18 15 17
Wind_Direction
187 204 207 206 214 234 219 215 212 202 188 224 229 233 217 200 206 206 198 196 197 200 194 191 191 191 189 189 189 191 196 193 193 193 196 197 200 204 207 210 209 211 213 211
189 216 214 206 205 216 214 215 209 190 191 229 232 236 226 214 215 214 206 203 202 197 191 190 192 192 192 191 191 192 196 196 199 198 200 202 207 211 211 212 208 215 217 219
204 204 193 195 198 206 212 215 208 200 199 218 236 229 219 213 218 215 213 210 207 200 195 192 192 194 195 195 196 196 197 196 202 200 199 198 204 217 213 213 213 214 217 220
216 187 187 197 201 204 209 209 211 206 216 213 222 234 211 209 212 211 212 210 208 202 198 194 193 195 198 198 197 199 197 199 200 200 204 203 210 217 220 218 215 214 217 221
203 192 193 202 202 205 205 184 204 214 227 237 218 244 220 194 221 217 213 212 211 203 199 196 196 196 197 196 196 197 196 198 200 204 208 211 219 224 224 222 220 221 220 223
197 192 202 207 198 199 174 170 188 217 228 232 224 235 236 211 224 223 213 211 210 203 198 196 194 191 193 193 194 194 195 199 200 205 210 213 219 224 226 223 224 220 222 223
192 193 196 196 185 187 191 188 195 206 216 228 204 229 241 214 222 236 226 214 207 199 195 193 190 188 189 191 193 195 196 199 201 205 209 212 217 220 225 227 226 225 228 225
192 194 192 193 196 188 201 207 217 218 218 208 188 229 226 192 222 239 233 218 202 193 189 190 191 189 189 189 190 194 195 198 201 205 209 212 214 219 224 223 231 226 228 230
197 194 181 194 201 200 199 216 230 246 240 228 205 214 222 204 216 216 211 198 190 186 185 187 190 189 190 189 190 193 192 197 200 204 207 211 213 219 223 220 225 231 231 229
199 187 178 183 193 211 215 206 210 225 221 225 218 218 218 193 203 195 191 187 180 177 175 178 182 185 185 185 186 190 192 194 198 200 205 209 214 216 217 219 223 228 230 231
203 190 172 180 197 192 197 203 211 218 233 233 222 213 191 189 194 197 180 174 170 169 170 172 173 175 178 180 182 186 189 191 193 199 203 211 213 211 212 216 220 220 225 227
204 206 187 190 192 210 204 206 206 210 215 236 249 194 121 172 187 181 157 151 151 158 162 163 164 167 171 175 177 180 184 187 190 194 198 205 211 209 209 212 216 218 219 222
187 204 188 187 193 204 210 211 213 222 222 225 234 208 129 157 174 168 156 149 146 153 153 152 155 162 167 171 175 175 179 182 183 184 188 195 201 200 202 205 205 206 210 214
197 207 216 206 196 189 200 205 210 215 222 224 233 230 183 196 195 175 163 157 154 154 151 149 149 153 156 164 167 167 169 167 167 168 173 179 186 184 187 192 195 196 191 189
205 209 219 230 195 195 202 203 206 215 226 233 230 235 219 212 206 183 170 162 157 155 152 148 146 143 147 154 157 156 150 147 149 149 150 155 158 162 168 173 174 173 174 179
210 216 207 213 207 208 212 210 211 217 225 234 238 233 221 183 178 176 174 169 162 158 153 147 142 140 143 144 145 140 135 134 139 140 139 143 145 146 145 152 155 155 155 157
197 207 209 211 203 211 219 214 215 218 222 229 231 228 200 190 187 184 178 174 165 157 150 144 141 139 136 133 134 132 128 130 130 129 128 128 130 129 133 138 132 135 136 132
203 207 211 211 200 219 216 210 218 220 224 230 231 214 198 189 169 171 172 171 161 153 147 142 139 134 130 128 128 126 126 127 125 121 118 117 119 120 120 119 117 117 118 116
208 208 214 211 208 215 204 201 206 211 217 219 218 207 179 155 151 163 164 160 154 147 141 138 136 132 127 125 124 124 123 122 116 110 106 108 111 110 111 110 107 109 110 107
197 214 219 213 216 218 199 177 196 216 215 198 199 192 179 179 201 173 149 147 138 132 130 130 129 127 122 119 120 124 121 117 111 108 106 103 102 103 108 110 109 109 108 104
185 199 215 215 219 217 139 157 181 210 194 152 181 182 185 195 189 127 137 134 130 129 127 126 123 119 118 121 122 118 114 110 110 109 104 101 100 101 104 104 105 107 104 99
193 194 204 212 219 207 132 178 200 105 65 117 162 175 167 135 119 128 132 130 130 129 129 126 121 116 117 120 119 112 108 108 108 106 104 101 97 98 100 100 100 103 107 105
209 218 204 212 206 84 109 102 41 39 74 85 126 143 152 146 137 135 133 132 131 128 125 124 121 116 112 113 115 112 109 113 112 108 104 101 97 93 95 99 102 103 105 108
183 218 201 189 161 134 117 94 85 95 115 115 131 146 152 146 141 138 134 132 131 127 125 124 121 115 110 108 109 112 116 117 115 112 108 106 101 94 86 83 86 90 95 102
181 185 186 194 186 158 127 91 86 97 108 115 121 135 143 143 139 135 131 132 129 126 125 125 121 119 116 114 113 116 120 121 118 115 114 110 102 96 86 74 57 66 60 58
219 217 218 206 175 173 125 88 90 105 115 114 114 119 128 133 132 129 127 126 127 126 125 124 122 121 119 117 114 116 121 126 124 121 120 116 113 109 106 101 83 57 62 61
Height
1504 1503 1499 1496 1495 1494 1496 1499 1501 1501 1502 1504 1503 1502 1501 1506 1509 1511 1515 1518 1522 1526 1530 1534 1537 1540 1543 1546 1548 1551 1555 1557 1560 1562 1565 1567 1569 1571 1573 1574 1576 1578 1579 1581
1502 1499 1493 1494 1497 1500 1500 1503 1502 1503 1504 1504 1503 1501 1499 1503 1506 1508 1511 1515 1518 1523 1527 1530 1534 1537 1540 1542 1545 1548 1551 1554 1557 1560 1562 1565 1567 1569 1571 1572 1573 1575 1577 1579
1493 1491 1494 1498 1501 1503 1501 1501 1502 1505 1504 1502 1503 1503 1499 1499 1503 1506 1508 1511 1514 1518 1522 1526 1529 1533 1536 1539 1542 1545 1548 1551 1554 1557 1560 1562 1564 1566 1568 1569 1571 1573 1574 1576
1490 1492 1496 1498 1499 1499 1502 1498 1501 1504 1507 1503 1504 1507 1497 1494 1498 1501 1504 1507 1510 1514 1518 1522 1525 1528 1532 1535 1539 1542 1545 1548 1551 1554 1556 1559 1561 1563 1565 1567 1569 1570 1571 1573
1488 1490 1494 1496 1495 1497 1496 1499 1502 1503 1504 1504 1503 1506 1494 1492 1495 1495 1498 1502 1506 1510 1514 1518 1521 1524 1528 1532 1535 1538 1541 1545 1548 1551 1553 1555 1558 1561 1563 1564 1565 1567 1568 1569
1483 1488 1490 1490 1492 1496 1498 1502 1504 1503 1502 1514 1503 1506 1499 1487 1489 1489 1493 1498 1502 1506 1510 1514 1518 1522 1525 1529 1532 1535 1537 1540 1544 1547 1549 1551 1554 1557 1559 1561 1562 1563 1565 1566
1488 1488 1487 1488 1493 1496 1498 1504 1513 1516 1514 1509 1496 1503 1494 1483 1485 1488 1491 1495 1499 1503 1506 1510 1514 1517 1521 1524 1528 1531 1533 1536 1540 1542 1545 1547 1550 1552 1554 1557 1558 1559 1561 1562
1488 1490 1484 1485 1486 1491 1494 1495 1503 1512 1509 1500 1503 1501 1486 1483 1487 1490 1492 1494 1497 1500 1503 1507 1510 1513 1517 1520 1523 1527 1530 1533 1536 1538 1540 1543 1546 1548 1550 1552 1554 1555 1556 1558
1477 1480 1478 1481 1482 1484 1491 1490 1482 1492 1494 1499 1494 1491 1485 1483 1485 1488 1489 1491 1494 1497 1500 1504 1507 1511 1514 1517 1520 1523 1526 1529 1532 1534 1537 1539 1542 1544 1546 1548 1549 1551 1552 1553
1468 1478 1478 1480 1483 1483 1481 1483 1490 1495 1505 1508 1498 1495 1486 1482 1482 1484 1486 1489 1492 1496 1499 1502 1505 1508 1511 1514 1517 1520 1522 1525 1528 1531 1533 1536 1538 1540 1542 1544 1545 1546 1548 1549
1467 1475 1480 1481 1482 1482 1486 1486 1485 1486 1487 1497 1501 1492 1473 1477 1479 1482 1485 1488 1491 1494 1497 1500 1503 1506 1509 1512 1514 1517 1519 1522 1525 1528 1530 1532 1534 1536 1537 1539 1541 1542 1543 1545
1467 1468 1476 1476 1473 1472 1476 1478 1483 1492 1495 1490 1488 1486 1474 1478 1480 1482 1485 1489 1491 1494 1497 1499 1502 1505 1507 1510 1513 1515 1517 1520 1522 1525 1527 1528 1531 1532 1534 1536 1537 1539 1540 1541
1468 1471 1481 1483 1483 1479 1477 1475 1476 1479 1484 1488 1491 1485 1476 1478 1480 1483 1486 1489 1492 1494 1496 1499 1502 1504 1506 1509 1511 1513 1516 1518 1520 1522 1524 1526 1528 1529 1531 1532 1534 1535 1536 1538
1467 1468 1470 1474 1470 1469 1476 1475 1475 1478 1484 1485 1483 1477 1476 1477 1479 1483 1486 1489 1492 1494 1497 1499 1501 1503 1505 1507 1510 1512 1515 1517 1519 1520 1522 1523 1525 1527 1529 1530 1531 1533 1534 1535
1465 1467 1466 1461 1460 1463 1468 1471 1473 1475 1473 1477 1475 1473 1472 1474 1478 1482 1485 1489 1491 1494 1496 1499 1501 1503 1505 1507 1509 1511 1513 1515 1517 1519 1520 1522 1524 1525 1527 1528 1529 1530 1532 1533
1465 1466 1466 1468 1464 1465 1467 1466 1468 1469 1469 1470 1470 1472 1470 1475 1479 1483 1485 1488 1490 1493 1496 1498 1500 1502 1505 1507 1509 1511 1512 1514 1516 1518 1520 1521 1523 1524 1525 1526 1528 1529 1530 1532
1463 1467 1469 1469 1465 1468 1473 1465 1465 1466 1465 1467 1471 1470 1472 1476 1479 1482 1485 1487 1490 1493 1496 1498 1500 1502 1504 1506 1508 1510 1512 1515 1516 1518 1519 1521 1522 1523 1524 1526 1527 1528 1530 1531
1464 1466 1465 1464 1470 1483 1464 1458 1459 1463 1464 1464 1465 1468 1471 1476 1480 1483 1485 1487 1490 1492 1495 1497 1500 1502 1504 1506 1508 1511 1513 1515 1517 1518 1519 1520 1522 1523 1524 1525 1527 1528 1530 1531
1463 1465 1463 1463 1470 1468 1463 1460 1460 1464 1465 1464 1466 1469 1473 1477 1480 1483 1485 1488 1490 1492 1495 1497 1500 1502 1504 1507 1509 1511 1513 1515 1517 1518 1519 1521 1522 1523 1525 1526 1527 1529 1530 1531
1464 1464 1462 1464 1469 1472 1459 1457 1461 1464 1467 1465 1467 1470 1473 1476 1475 1479 1485 1488 1490 1492 1494 1497 1500 1502 1504 1507 1509 1512 1514 1516 1518 1519 1520 1521 1523 1524 1525 1526 1528 1529 1531 1532
1462 1465 1463 1463 1465 1458 1456 1459 1463 1470 1465 1466 1468 1470 1473 1474 1474 1480 1484 1487 1490 1492 1494 1497 1500 1503 1505 1507 1510 1512 1515 1516 1518 1520 1521 1522 1523 1525 1526 1527 1528 1530 1531 1532
1455 1457 1461 1460 1464 1463 1460 1460 1461 1464 1467 1467 1469 1471 1473 1476 1478 1481 1484 1487 1490 1493 1496 1498 1501 1504 1506 1509 1511 1513 1515 1517 1519 1520 1522 1523 1524 1526 1527 1528 1529 1531 1532 1533
1453 1453 1451 1455 1460 1462 1463 1464 1466 1467 1468 1469 1470 1472 1474 1476 1479 1482 1485 1488 1491 1494 1497 1500 1502 1505 1507 1509 1511 1513 1515 1517 1519 1521 1522 1523 1525 1526 1528 1529 1531 1532 1533 1535
1457 1459 1457 1459 1461 1463 1465 1466 1467 1468 1469 1470 1471 1473 1475 1477 1480 1483 1486 1489 1492 1495 1498 1501 1503 1505 1508 1510 1512 1514 1516 1518 1520 1521 1523 1525 1526 1528 1529 1531 1533 1534 1535 1536
1457 1457 1457 1461 1464 1464 1466 1467 1467 1468 1469 1471 1472 1474 1475 1478 1481 1483 1486 1489 1492 1495 1498 1501 1504 1506 1509 1511 1513 1515 1517 1518 1520 1522 1524 1526 1527 1528 1530 1532 1533 1534 1535 1537
1458 1457 1456 1457 1462 1463 1466 1468 1469 1469 1470 1471 1473 1474 1477 1479 1481 1484 1487 1490 1493 1496 1498 1502 1505 1507 1509 1512 1514 1515 1517 1519 1521 1523 1525 1527 1529 1530 1532 1534 1535 1536 1537 1538